TimeCST,TemperatureF,Dew PointF,Humidity,Sea Level PressureIn,VisibilityMPH,Wind Direction,Wind SpeedMPH,Gust SpeedMPH,PrecipitationIn,Events,Conditions,WindDirDegrees,DateUTC
12:15 AM,30.2,23.0,75,29.76,10.0,West,11.5,25.3,N/A,,Overcast,280,2012-11-23 06:15:00
12:35 AM,30.2,22.5,73,29.76,10.0,West,16.1,29.9,N/A,,Overcast,270,2012-11-23 06:35:00
12:55 AM,29.8,23.0,76,29.76,10.0,West,21.9,35.7,N/A,,Overcast,280,2012-11-23 06:55:00
1:15 AM,28.6,24.1,83,29.76,7.0,West,13.8,20.7,N/A,,Overcast,280,2012-11-23 07:15:00
1:35 AM,27.3,23.2,84,29.78,7.0,West,18.4,26.5,N/A,,Overcast,280,2012-11-23 07:35:00
1:55 AM,26.4,19.8,76,29.78,10.0,WNW,17.3,31.1,N/A,,Overcast,290,2012-11-23 07:55:00
2:15 AM,25.7,18.9,75,29.78,10.0,West,19.6,32.2,N/A,,Overcast,270,2012-11-23 08:15:00
2:35 AM,25.7,16.5,68,29.79,10.0,West,19.6,29.9,N/A,,Overcast,280,2012-11-23 08:35:00
2:55 AM,25.3,14.2,63,29.80,10.0,West,16.1,35.7,N/A,,Overcast,270,2012-11-23 08:55:00
3:15 AM,24.6,14.9,67,29.80,10.0,West,12.7,33.4,N/A,,Overcast,280,2012-11-23 09:15:00
3:35 AM,24.4,15.4,69,29.80,10.0,WNW,15.0,28.8,N/A,,Overcast,290,2012-11-23 09:35:00
3:55 AM,23.7,15.4,71,29.81,10.0,West,15.0,31.1,N/A,,Overcast,280,2012-11-23 09:55:00
4:15 AM,23.7,15.6,71,29.81,10.0,West,16.1,25.3,N/A,,Overcast,280,2012-11-23 10:15:00
4:35 AM,23.9,15.4,70,29.81,10.0,West,11.5,33.4,N/A,Snow,Light Snow,270,2012-11-23 10:35:00
4:55 AM,23.0,16.7,77,29.81,7.0,West,16.1,25.3,N/A,,Overcast,270,2012-11-23 10:55:00
5:15 AM,22.6,17.2,80,29.82,3.0,West,16.1,31.1,N/A,Snow,Light Snow,270,2012-11-23 11:15:00
5:35 AM,22.5,17.4,81,29.82,3.0,West,13.8,23.0,N/A,Snow,Light Snow,280,2012-11-23 11:35:00
5:55 AM,22.1,18.0,84,29.83,3.0,West,12.7,23.0,N/A,Snow,Light Snow,280,2012-11-23 11:55:00
6:15 AM,22.1,18.1,85,29.83,4.0,West,16.1,26.5,N/A,Snow,Light Snow,280,2012-11-23 12:15:00
6:35 AM,22.6,18.0,82,29.84,7.0,West,17.3,31.1,N/A,,Overcast,280,2012-11-23 12:35:00
6:55 AM,22.6,17.2,80,29.85,10.0,West,15.0,24.2,N/A,,Overcast,280,2012-11-23 12:55:00
7:15 AM,22.8,17.1,79,29.86,10.0,West,15.0,25.3,N/A,,Overcast,280,2012-11-23 13:15:00
7:35 AM,23.0,17.1,78,29.88,10.0,West,17.3,24.2,N/A,,Overcast,280,2012-11-23 13:35:00
7:55 AM,23.0,16.5,76,29.89,10.0,WNW,16.1,28.8,N/A,Snow,Light Snow,290,2012-11-23 13:55:00
8:15 AM,23.5,16.7,75,29.90,7.0,WNW,16.1,24.2,N/A,Snow,Light Snow,290,2012-11-23 14:15:00
8:35 AM,23.9,16.3,73,29.91,10.0,WNW,13.8,32.2,N/A,,Overcast,290,2012-11-23 14:35:00
8:55 AM,24.6,15.3,68,29.92,10.0,NW,21.9,29.9,N/A,,Overcast,310,2012-11-23 14:55:00
9:15 AM,24.6,14.7,66,29.93,10.0,WNW,17.3,29.9,N/A,,Overcast,290,2012-11-23 15:15:00
9:35 AM,24.8,14.4,65,29.95,10.0,NW,18.4,27.6,N/A,,Overcast,310,2012-11-23 15:35:00
9:55 AM,24.8,14.7,66,29.96,10.0,WNW,16.1,28.8,N/A,,Overcast,300,2012-11-23 15:55:00
10:15 AM,25.2,14.9,65,29.97,10.0,WNW,17.3,25.3,N/A,,Overcast,300,2012-11-23 16:15:00
10:35 AM,25.5,15.1,65,29.98,10.0,WNW,15.0,25.3,N/A,,Overcast,300,2012-11-23 16:35:00
11:15 AM,25.7,15.1,64,30.01,10.0,WNW,18.4,27.6,N/A,,Overcast,300,2012-11-23 17:15:00
11:35 AM,25.9,15.8,66,30.01,10.0,WNW,17.3,23.0,N/A,,Overcast,300,2012-11-23 17:35:00
11:55 AM,25.3,15.8,67,30.02,10.0,WNW,11.5,25.3,N/A,,Overcast,300,2012-11-23 17:55:00
12:15 PM,25.9,15.4,65,30.03,10.0,NW,16.1,20.7,N/A,,Overcast,310,2012-11-23 18:15:00
12:35 PM,26.1,14.7,62,30.03,10.0,NW,19.6,28.8,N/A,,Overcast,320,2012-11-23 18:35:00
12:55 PM,26.1,14.0,60,30.04,10.0,WNW,17.3,25.3,N/A,,Overcast,300,2012-11-23 18:55:00
1:15 PM,26.4,14.0,59,30.04,10.0,WNW,20.7,27.6,N/A,,Overcast,300,2012-11-23 19:15:00
1:35 PM,25.7,14.2,62,30.06,10.0,NW,16.1,25.3,N/A,,Overcast,310,2012-11-23 19:35:00
1:55 PM,25.3,14.5,64,30.07,10.0,NW,18.4,28.8,N/A,,Overcast,310,2012-11-23 19:55:00
2:15 PM,25.2,14.4,64,30.08,10.0,NW,17.3,28.8,N/A,,Overcast,310,2012-11-23 20:15:00
2:35 PM,25.2,13.6,62,30.09,10.0,NW,21.9,34.5,N/A,,Overcast,310,2012-11-23 20:35:00
2:55 PM,25.2,14.5,64,30.10,10.0,WNW,11.5,23.0,N/A,,Overcast,300,2012-11-23 20:55:00
3:15 PM,24.8,13.1,61,30.12,10.0,NW,12.7,26.5,N/A,,Overcast,310,2012-11-23 21:15:00
3:35 PM,24.8,14.0,64,30.13,10.0,WNW,10.4,23.0,N/A,,Overcast,300,2012-11-23 21:35:00
3:55 PM,24.8,15.4,68,30.13,10.0,WNW,9.2,18.4,N/A,,Overcast,300,2012-11-23 21:55:00
4:15 PM,24.8,14.9,66,30.14,10.0,NW,15.0,21.9,N/A,,Overcast,320,2012-11-23 22:15:00
4:35 PM,24.6,14.4,65,30.14,10.0,WNW,12.7,25.3,N/A,,Overcast,290,2012-11-23 22:35:00
4:55 PM,24.1,13.8,65,30.15,10.0,NW,13.8,24.2,N/A,,Overcast,310,2012-11-23 22:55:00
5:15 PM,23.9,14.0,66,30.16,10.0,WNW,10.4,24.2,N/A,,Overcast,300,2012-11-23 23:15:00
5:35 PM,23.7,14.0,66,30.16,10.0,NW,12.7,25.3,N/A,,Overcast,310,2012-11-23 23:35:00
5:55 PM,23.5,13.5,65,30.18,10.0,WNW,16.1,23.0,N/A,,Overcast,300,2012-11-23 23:55:00
6:15 PM,23.4,13.1,65,30.18,10.0,WNW,11.5,21.9,N/A,,Overcast,300,2012-11-24 00:15:00
6:35 PM,23.0,12.7,65,30.18,10.0,NW,13.8,20.7,N/A,,Overcast,320,2012-11-24 00:35:00
6:55 PM,23.0,13.6,67,30.19,10.0,WNW,12.7,18.4,N/A,Snow,Light Snow,300,2012-11-24 00:55:00
7:15 PM,23.0,13.6,67,30.19,10.0,NW,12.7,19.6,N/A,,Overcast,310,2012-11-24 01:15:00
7:35 PM,22.6,14.0,69,30.19,10.0,WNW,12.7,21.9,N/A,Snow,Light Snow,300,2012-11-24 01:35:00
7:55 PM,22.6,14.0,69,30.19,10.0,WNW,10.4,-,N/A,Snow,Light Snow,300,2012-11-24 01:55:00
8:15 PM,22.5,13.5,68,30.20,10.0,NW,12.7,21.9,N/A,Snow,Light Snow,310,2012-11-24 02:15:00
8:35 PM,22.1,12.9,68,30.19,10.0,NW,12.7,18.4,N/A,,Overcast,310,2012-11-24 02:35:00
8:55 PM,22.1,12.6,67,30.19,10.0,NW,9.2,19.6,N/A,,Overcast,310,2012-11-24 02:55:00
9:15 PM,21.9,12.0,66,30.19,10.0,NW,10.4,19.6,N/A,,Overcast,320,2012-11-24 03:15:00
9:35 PM,21.7,11.8,66,30.20,10.0,NW,11.5,19.6,N/A,,Overcast,310,2012-11-24 03:35:00
9:55 PM,21.6,11.8,66,30.20,10.0,NW,9.2,16.1,N/A,,Overcast,320,2012-11-24 03:55:00
10:15 PM,21.2,12.0,68,30.20,10.0,NW,9.2,-,N/A,,Overcast,310,2012-11-24 04:15:00
10:35 PM,21.2,12.0,68,30.20,10.0,NW,12.7,16.1,N/A,Snow,Light Snow,310,2012-11-24 04:35:00
11:15 PM,20.5,12.4,71,30.20,10.0,NW,11.5,-,N/A,Snow,Light Snow,310,2012-11-24 05:15:00
11:35 PM,20.3,10.9,67,30.20,10.0,NW,10.4,17.3,N/A,Snow,Light Snow,310,2012-11-24 05:35:00
11:55 PM,20.3,10.4,66,30.20,10.0,NW,11.5,18.4,N/A,,Overcast,310,2012-11-24 05:55:00